EW7594 Weather Reports


time (UTC)temp
C
wind
direction
speed
KPH
gust
KPH
rain 1hr
cm
rain 24hr
cm
rain mn
cm
humidity
%
barometer
mb
20260510033004 12 0 0.0 6.4 0.00 0.05 0.03 95 1030.5
20260510032404 12 0 0.0 4.8 0.00 0.05 0.03 96 1030.6
20260510031525 11 87 1.6 4.8 0.00 0.05 0.03 95 1030.6
20260510030603 12 0 0.0 4.8 0.00 0.05 0.03 96 1030.7
20260510025704 12 0 0.0 3.2 0.00 0.05 0.03 96 1030.9
20260510024825 12 0 0.0 1.6 0.00 0.05 0.03 96 1030.9
20260510023904 12 87 1.6 4.8 0.00 0.05 0.03 96 1031.1
20260510023025 11 0 0.0 6.4 0.00 0.05 0.03 96 1031.2
20260510022404 11 0 0.0 6.4 0.00 0.05 0.03 96 1031.3
20260510021504 11 0 0.0 3.2 0.00 0.05 0.03 96 1031.5
20260510020604 12 0 0.0 0.0 0.00 0.05 0.03 97 1031.6
20260510015704 11 0 0.0 3.2 0.00 0.05 0.03 97 1031.7
20260510014804 11 0 0.0 1.6 0.00 0.05 0.03 97 1031.9
20260510013904 11 0 0.0 3.2 0.00 0.05 0.03 97 1032.0
20260510013004 11 0 0.0 3.2 0.00 0.05 0.03 97 1032.0
20260510012404 11 0 0.0 3.2 0.00 0.08 0.03 97 1032.0
20260510011504 11 0 0.0 0.0 0.00 0.08 0.03 97 1032.0
20260510010604 11 0 0.0 3.2 0.00 0.08 0.03 97 1032.0
20260510005704 10 0 0.0 4.8 0.00 0.08 0.03 97 1032.1
20260510004804 10 0 0.0 4.8 0.00 0.10 0.03 97 1032.0
20260510003904 10 0 0.0 3.2 0.00 0.10 0.03 97 1032.0
20260510003004 10 0 0.0 3.2 0.00 0.10 0.03 98 1032.0
20260510002404 10 0 0.0 1.6 0.00 0.10 0.03 98 1032.0
20260510001525 10 0 0.0 0.0 0.00 0.10 0.03 98 1032.1
20260510000604 10 0 0.0 0.0 0.00 0.10 0.03 98 1032.1
20260509235725 10 0 0.0 0.0 0.00 0.10 0.03 98 1032.1
20260509234825 10 0 0.0 1.6 0.00 0.10 0.03 98 1032.1
20260509233904 10 0 0.0 1.6 0.00 0.10 0.03 98 1032.2
20260509233004 10 0 0.0 1.6 0.00 0.10 0.03 98 1032.2
20260509232425 10 0 0.0 1.6 0.00 0.10 0.03 98 1032.2
20260509231525 10 0 0.0 1.6 0.00 0.10 0.03 98 1032.2
20260509230603 10 0 0.0 1.6 0.00 0.10 0.03 98 1032.0
20260509225704 10 0 0.0 0.0 0.00 0.10 0.03 98 1032.0
20260509224825 10 0 0.0 1.6 0.00 0.10 0.03 98 1032.0
20260509223904 10 0 0.0 0.0 0.00 0.10 0.03 98 1031.9
20260509223004 9 0 0.0 1.6 0.00 0.10 0.03 98 1031.8
20260509222403 10 0 0.0 0.0 0.00 0.10 0.03 98 1031.6
20260509221503 10 0 0.0 0.0 0.00 0.10 0.03 98 1031.6
20260509220624 10 0 0.0 1.6 0.00 0.10 0.03 98 1031.5
20260509215703 10 0 0.0 1.6 0.00 0.13 0.03 98 1031.4
20260509214803 10 0 0.0 1.6 0.00 0.13 0.03 98 1031.2
20260509213903 10 0 0.0 0.0 0.00 0.13 0.03 98 1031.1
20260509213004 10 0 0.0 0.0 0.00 0.13 0.03 98 1031.0
20260509212425 10 0 0.0 0.0 0.00 0.13 0.03 98 1030.9
20260509211524 10 0 0.0 0.0 0.00 0.13 0.03 98 1030.9
20260509210603 10 0 0.0 1.6 0.00 0.13 0.03 98 1030.9
20260509205704 10 0 0.0 0.0 0.00 0.13 0.03 98 1030.8
20260509204804 10 0 0.0 0.0 0.00 0.13 0.03 98 1030.8
20260509203903 10 0 0.0 0.0 0.00 0.13 0.03 98 1030.7
20260509203025 9 0 0.0 0.0 0.00 0.13 0.03 98 1030.6
20260509202404 9 0 0.0 0.0 0.00 0.13 0.03 98 1030.5
20260509201503 9 0 0.0 1.6 0.00 0.13 0.03 98 1030.4
20260509200604 9 0 0.0 0.0 0.00 0.13 0.03 98 1030.4
20260509195703 9 0 0.0 3.2 0.00 0.13 0.03 98 1030.4
20260509194803 9 0 0.0 0.0 0.00 0.15 0.03 98 1030.3
20260509193903 9 0 0.0 0.0 0.00 0.15 0.03 98 1030.2
20260509193004 9 0 0.0 0.0 0.00 0.15 0.03 98 1030.2
20260509192404 9 0 0.0 0.0 0.00 0.15 0.03 98 1030.1
20260509191504 9 0 0.0 0.0 0.00 0.15 0.03 98 1030.1
20260509190604 9 0 0.0 1.6 0.00 0.15 0.03 98 1030.0
20260509185704 9 0 0.0 1.6 0.00 0.15 0.03 98 1029.9
20260509184804 9 0 0.0 0.0 0.00 0.15 0.03 98 1029.8
20260509183903 9 0 0.0 1.6 0.00 0.15 0.03 98 1029.8
20260509183025 9 0 0.0 0.0 0.00 0.15 0.03 98 1029.8
20260509182425 9 0 0.0 1.6 0.00 0.15 0.03 98 1029.8
20260509181504 9 0 0.0 1.6 0.00 0.15 0.03 98 1029.8
20260509180603 9 0 0.0 3.2 0.00 0.15 0.03 98 1029.7
20260509175703 10 0 0.0 1.6 0.00 0.15 0.03 98 1029.6
20260509174803 10 0 0.0 3.2 0.00 0.15 0.03 98 1029.7
20260509173903 10 0 0.0 3.2 0.00 0.15 0.03 98 1029.6
20260509173004 10 0 0.0 1.6 0.00 0.15 0.03 98 1029.7
20260509172404 10 0 0.0 1.6 0.00 0.15 0.03 98 1029.5
20260509171503 10 0 0.0 1.6 0.00 0.15 0.03 98 1029.6
20260509170604 10 0 0.0 6.4 0.03 0.15 0.03 98 1029.7
20260509165703 10 0 0.0 4.8 0.03 0.15 0.03 98 1029.7
20260509164803 10 0 0.0 1.6 0.03 0.15 0.03 98 1029.8
20260509163924 10 0 0.0 3.2 0.03 0.15 0.03 98 1029.8
20260509163004 10 0 0.0 6.4 0.03 0.15 0.03 98 1029.9
20260509162424 10 0 0.0 6.4 0.03 0.15 0.03 98 1030.0
20260509161524 10 0 0.0 1.6 0.03 0.15 0.03 98 1030.0
20260509160604 10 0 0.0 3.2 0.00 0.13 0.00 97 1030.0
20260509155703 10 0 0.0 3.2 0.00 0.13 0.00 97 1030.0
20260509154825 10 0 0.0 3.2 0.00 0.13 0.00 98 1030.0
20260509153903 10 0 0.0 3.2 0.00 0.13 0.00 97 1029.9
20260509153024 10 0 0.0 3.2 0.00 0.13 0.00 97 1030.0
20260509152403 10 0 0.0 4.8 0.00 0.13 0.00 97 1030.0
20260509151525 10 0 0.0 3.2 0.00 0.13 0.00 97 1030.1
20260509150604 10 0 0.0 3.2 0.00 0.13 0.00 97 1030.1
20260509145704 10 0 0.0 4.8 0.00 0.13 0.00 97 1030.1
20260509143903 10 0 0.0 4.8 0.03 0.13 0.00 97 1030.1
20260509143004 10 0 0.0 4.8 0.03 0.13 0.00 97 1030.2
20260509142425 10 0 0.0 4.8 0.03 0.13 0.13 97 1030.2
20260509141503 10 0 0.0 4.8 0.03 0.13 0.13 97 1030.2
20260509140603 10 0 0.0 4.8 0.03 0.13 0.13 97 1030.2
20260509135704 10 0 0.0 6.4 0.03 0.13 0.13 97 1030.2
20260509134824 10 0 0.0 1.6 0.03 0.15 0.13 97 1030.2
20260509133924 10 0 0.0 3.2 0.00 0.13 0.10 97 1030.2
20260509133025 10 0 0.0 3.2 0.00 0.13 0.10 97 1030.2
20260509132424 10 0 0.0 1.6 0.00 0.13 0.10 97 1030.1
20260509131504 10 0 0.0 6.4 0.00 0.13 0.10 97 1030.2
20260509130603 10 0 0.0 1.6 0.00 0.13 0.10 96 1030.3
20260509125703 10 0 0.0 3.2 0.00 0.13 0.10 96 1030.3
20260509124804 10 0 0.0 1.6 0.00 0.13 0.10 96 1030.4
20260509123925 10 0 0.0 1.6 0.00 0.13 0.10 96 1030.4
20260509123004 10 0 0.0 1.6 0.00 0.13 0.10 96 1030.4
20260509122404 10 0 0.0 1.6 0.00 0.13 0.10 96 1030.3
20260509121504 10 0 0.0 1.6 0.00 0.13 0.10 96 1030.4
20260509120604 10 0 0.0 3.2 0.00 0.13 0.10 96 1030.3
20260509115725 10 0 0.0 1.6 0.00 0.13 0.10 96 1030.3
20260509114803 10 0 0.0 1.6 0.00 0.13 0.10 96 1030.2
20260509113903 10 0 0.0 3.2 0.00 0.13 0.10 96 1030.3
20260509113004 10 0 0.0 1.6 0.00 0.13 0.10 96 1030.2
20260509112403 10 0 0.0 1.6 0.00 0.13 0.10 96 1030.2
20260509111503 10 0 0.0 1.6 0.00 0.13 0.10 96 1030.3
20260509110604 10 0 0.0 3.2 0.00 0.13 0.10 96 1030.3
20260509105724 10 0 0.0 1.6 0.00 0.13 0.10 96 1030.3
20260509104803 10 0 0.0 3.2 0.00 0.13 0.10 96 1030.3
20260509103924 10 0 0.0 0.0 0.00 0.13 0.10 96 1030.3
20260509103004 10 0 0.0 0.0 0.00 0.13 0.10 96 1030.3
20260509102403 10 0 0.0 0.0 0.00 0.13 0.10 96 1030.3
20260509101503 10 0 0.0 1.6 0.00 0.13 0.10 96 1030.4
20260509100624 10 0 0.0 0.0 0.00 0.13 0.10 96 1030.3
20260509095703 10 0 0.0 1.6 0.00 0.13 0.10 95 1030.3
20260509094803 10 0 0.0 3.2 0.00 0.13 0.10 95 1030.4
20260509093904 10 0 0.0 0.0 0.00 0.13 0.10 95 1030.3
20260509093003 10 0 0.0 0.0 0.00 0.13 0.10 95 1030.2
20260509092403 11 0 0.0 0.0 0.00 0.13 0.10 95 1030.3
20260509091503 11 0 0.0 0.0 0.00 0.13 0.10 95 1030.3
20260509090604 11 0 0.0 6.4 0.00 0.13 0.10 95 1030.3
20260509085703 11 0 0.0 1.6 0.00 0.13 0.10 94 1030.3
20260509084803 11 0 0.0 0.0 0.00 0.13 0.10 94 1030.3
20260509083903 11 0 0.0 0.0 0.00 0.13 0.10 94 1030.3
20260509083003 11 0 0.0 0.0 0.00 0.13 0.10 94 1030.3
20260509082425 11 0 0.0 0.0 0.00 0.13 0.10 94 1030.2
20260509081503 11 0 0.0 3.2 0.00 0.13 0.10 94 1030.0
20260509080624 11 0 0.0 0.0 0.00 0.13 0.10 94 1030.0
20260509075703 11 0 0.0 0.0 0.00 0.13 0.10 94 1030.0
20260509074805 11 0 0.0 1.6 0.00 0.13 0.10 94 1030.0
20260509073924 11 0 0.0 1.6 0.00 0.13 0.10 94 1030.0
20260509073003 11 0 0.0 1.6 0.00 0.13 0.10 94 1029.9
20260509072403 11 0 0.0 0.0 0.00 0.13 0.10 94 1029.9
20260509071504 12 0 0.0 0.0 0.00 0.13 0.10 94 1029.9
20260509070604 12 0 0.0 3.2 0.03 0.13 0.10 93 1030.0
20260509065703 12 0 0.0 6.4 0.03 0.13 0.10 93 1029.9
20260509064803 12 0 0.0 6.4 0.03 0.13 0.10 93 1029.8
20260509063904 12 0 0.0 3.2 0.03 0.13 0.10 92 1029.7
20260509063025 12 0 0.0 3.2 0.03 0.13 0.10 92 1029.7
20260509062403 12 0 0.0 4.8 0.03 0.13 0.10 91 1029.7